Change the Weather History Date:

Wednesday, September 25, 2013

  Actual Average Record
Temperature  
Mean Temperature 82 °F -  
Max Temperature 90 °F 89 °F 95 °F (1980)
Min Temperature 75 °F 73 °F 68 °F (1961)
Cooling Degree Days 17    
Growing Degree Days 32 (Base 50)    
Moisture  
Dew Point 74 °F    
Average Humidity 80    
Maximum Humidity 90    
Minimum Humidity 63    
Precipitation  
Precipitation 0.29 in - - ()
Sea Level Pressure  
Sea Level Pressure 29.88 in    
Wind  
Wind Speed 4 mph (WSW)    
Max Wind Speed 14 mph    
Max Gust Speed 25 mph    
Visibility 9 miles    
Events Rain , Thunderstorm    
Averages and records for this station are not official NWS values.
T = Trace of Precipitation, MM = Missing Value Source: NWS Daily Summary

Daily Weather History Graph

Daily Weather History Graph

Search for Another Location

Airport or City:

Trip Planner

Search our weather history database for the weather conditions in past years. The results will help you decide how hot, cold, wet, or windy it might be!

Date:

Astronomy

Sep. 25, 2013 Rise Set
Actual Time 7:10 AM EDT 7:13 PM EDT
Civil Twilight 6:47 AM EDT 7:36 PM EDT
Nautical Twilight 6:20 AM EDT 8:03 PM EDT
Astronomical Twilight 5:53 AM EDT 8:30 PM EDT
Moon 11:47 PM EDT (9/25) 12:45 PM EDT (9/25)
Length of Visible Light 12h 48m
Length of Day
12h 02m
Waning Gibbous, 64% of the Moon is Illuminated
Sep 25
Waning Gibbous
Sep 26
Last Quarter
Oct 4
New
Oct 11
First Quarter
Oct 18
Full

Hourly Weather History & Observations

Time (EDT) Temp. Heat Index Dew Point Humidity Pressure Visibility Wind Dir Wind Speed Gust Speed Precip Events Conditions
12:53 AM 78.1 °F - 70.0 °F 76% 29.90 in 10.0 mi Calm Calm - N/A   Scattered Clouds
1:53 AM 75.9 °F - 70.0 °F 82% 29.89 in 10.0 mi WSW 4.6 mph - N/A   Clear
2:53 AM 77.0 °F - 69.1 °F 76% 29.86 in 10.0 mi SSW 4.6 mph - N/A   Clear
3:53 AM 75.9 °F - 70.0 °F 82% 29.86 in 10.0 mi Calm Calm - N/A   Partly Cloudy
4:53 AM 75.9 °F - 71.1 °F 85% 29.86 in 10.0 mi Calm Calm - N/A   Partly Cloudy
5:53 AM 77.0 °F - 72.0 °F 84% 29.86 in 10.0 mi Calm Calm - N/A   Clear
6:53 AM 77.0 °F - 73.0 °F 88% 29.88 in 10.0 mi Calm Calm - N/A   Scattered Clouds
7:53 AM 78.1 °F - 73.9 °F 87% 29.88 in 10.0 mi Calm Calm - N/A   Scattered Clouds
8:53 AM 82.9 °F 91.8 °F 77.0 °F 82% 29.89 in 10.0 mi WSW 10.4 mph - N/A   Scattered Clouds
9:53 AM 84.9 °F 95.3 °F 77.0 °F 77% 29.90 in 10.0 mi SW 10.4 mph - N/A   Scattered Clouds
10:53 AM 88.0 °F 98.5 °F 75.9 °F 67% 29.91 in 10.0 mi SW 13.8 mph - N/A   Scattered Clouds
11:53 AM 89.1 °F 99.1 °F 75.0 °F 63% 29.89 in 10.0 mi WSW 13.8 mph - N/A   Clear
12:11 PM 78.8 °F - 73.4 °F 83% 29.90 in 10.0 mi NW 11.5 mph 25.3 mph 0.18 in Rain Heavy Rain
12:16 PM 78.8 °F - 75.2 °F 89% 29.90 in 2.0 mi WNW 9.2 mph 17.3 mph 0.23 in Rain Heavy Rain
12:31 PM 78.8 °F - 73.4 °F 83% 29.90 in 5.0 mi SW 11.5 mph - 0.27 in Rain , Thunderstorm Thunderstorms and Rain
12:53 PM 79.0 °F - 75.9 °F 90% 29.91 in 5.0 mi West 6.9 mph - 0.29 in Rain , Thunderstorm Thunderstorms and Rain
1:53 PM 81.0 °F 87.3 °F 75.9 °F 85% 29.88 in 10.0 mi WNW 5.8 mph - 0.00 in   Scattered Clouds
2:53 PM 84.9 °F 94.1 °F 75.9 °F 74% 29.86 in 10.0 mi NW 8.1 mph - N/A   Scattered Clouds
3:53 PM 84.0 °F 90.2 °F 73.0 °F 69% 29.86 in 10.0 mi West 10.4 mph - N/A   Clear
4:53 PM 82.0 °F 87.9 °F 73.9 °F 76% 29.83 in 10.0 mi SSW 8.1 mph - 0.00 in Rain Light Rain
5:53 PM 84.0 °F 91.9 °F 75.0 °F 74% 29.84 in 10.0 mi SW 3.5 mph - 0.00 in   Clear
6:53 PM 82.9 °F 89.4 °F 73.9 °F 74% 29.85 in 10.0 mi West 5.8 mph - N/A   Scattered Clouds
7:53 PM 81.0 °F 86.2 °F 73.9 °F 79% 29.86 in 10.0 mi WSW 4.6 mph - N/A   Clear
8:53 PM 81.0 °F 86.2 °F 73.9 °F 79% 29.86 in 10.0 mi Calm Calm - N/A   Clear
9:53 PM 79.0 °F - 73.9 °F 84% 29.87 in 10.0 mi WSW 3.5 mph - N/A   Clear
10:53 PM 79.0 °F - 75.0 °F 88% 29.88 in 10.0 mi Calm Calm - N/A   Clear
11:53 PM 78.1 °F - 73.9 °F 87% 29.87 in 10.0 mi West 3.5 mph - N/A   Clear